Multibeam Report for TN261


Ship Name: Thomas G. Thompson
Chief Scientist: None
Source Organization: Rolling Deck to Repository
Start Date: 2011-01-06
End Date: 2011-01-14


View ISO Metadata

Visit the full NCEI Bathymetry Viewer


Multibeam Bathymetry

Cruise Details

Project: Transit
Instrument: Simrad EM302

Data Quality

Number of Files: 97
Number of Records: 23332
BATHYMETRY DATA Quantity Percentage
Number of Beams 8570448 100%
Number of Good Beams 7079836 82.61%
Number of Zero Beams 2473 0.03%
Number of Flagged Beams 1488139 17.36%
AMPLITUDE DATA Quantity Percentage
Number of Beams 8570448 100%
Number of Good Beams 7079836 82.61%
Number of Zero Beams 2473 0.03%
Number of Flagged Beams 1488139 17.36%
SIDESCAN DATA Quantity Percentage
Number of Pixels 23889920 100%
Number of Good Pixels 10492071 43.92%
Number of Zero Pixels 0 0%
Number of Flagged Pixels 13397849 56.08%

Navigation Totals

Total Time: 44.6349 hours
Total Track Length: 1059.9543 km
Average Speed: 23.747 km/hr (12.8224 knots)

Cruise Bounds

Northern Extent: 28.809286
Southern Extent: 21.236221
Western Extent: -157.73488
Eastern Extent: -149.53622

Limits

Minimum Sonar Depth 1.8026 Maximum Sonar Depth 10.3483
Minimum Altitude 83.993 Maximum Altitude 8150.0078
Minimum Depth 81.7535 Maximum Depth 8760.2305
Minimum Amplitude 0 Maximum Amplitude 20.6
Minimum Sidescan 0 Maximum Sidescan 21.96

File Information

Full Resolution Bathymetry as collected (raw): 96

Files File Size Description
0000_20110106_190213.all.mb58.gz 301.63MB Kongsberg multibeam vendor format
0000_20110107_185924.all.mb58.gz 30.77MB Kongsberg multibeam vendor format
0000_20110108_171653.all.mb58.gz 22.22MB Kongsberg multibeam vendor format
0001_20110106_193213.all.mb58.gz 356.66MB Kongsberg multibeam vendor format
0001_20110107_190749.all.mb58.gz 62.56MB Kongsberg multibeam vendor format
0001_20110108_174648.all.mb58.gz 3.50MB Kongsberg multibeam vendor format
0001_20110108_195641.all.mb58.gz 22.36MB Kongsberg multibeam vendor format
0002_20110106_200213.all.mb58.gz 197.47MB Kongsberg multibeam vendor format
0002_20110107_192351.all.mb58.gz 27.13MB Kongsberg multibeam vendor format
0002_20110108_202646.all.mb58.gz 4.12MB Kongsberg multibeam vendor format
0003_20110106_202839.all.mb58.gz 132.21MB Kongsberg multibeam vendor format
0003_20110107_193112.all.mb58.gz 95.82MB Kongsberg multibeam vendor format
0004_20110106_205842.all.mb58.gz 120.93MB Kongsberg multibeam vendor format
0005_20110106_212844.all.mb58.gz 53.69MB Kongsberg multibeam vendor format
0006_20110106_215839.all.mb58.gz 51.23MB Kongsberg multibeam vendor format
0007_20110106_222846.all.mb58.gz 50.27MB Kongsberg multibeam vendor format
0008_20110106_225844.all.mb58.gz 48.19MB Kongsberg multibeam vendor format
0009_20110106_232843.all.mb58.gz 48.03MB Kongsberg multibeam vendor format
0010_20110106_235844.all.mb58.gz 48.35MB Kongsberg multibeam vendor format
0011_20110107_002846.all.mb58.gz 48.32MB Kongsberg multibeam vendor format
0012_20110107_005846.all.mb58.gz 47.78MB Kongsberg multibeam vendor format
0013_20110107_012843.all.mb58.gz 48.02MB Kongsberg multibeam vendor format
0014_20110107_015842.all.mb58.gz 47.76MB Kongsberg multibeam vendor format
0015_20110107_022842.all.mb58.gz 48.27MB Kongsberg multibeam vendor format
0016_20110107_025843.all.mb58.gz 48.86MB Kongsberg multibeam vendor format
0017_20110107_032846.all.mb58.gz 10.74MB Kongsberg multibeam vendor format
0018_20110107_041226.all.mb58.gz 21.90MB Kongsberg multibeam vendor format
0020_20110107_060219.all.mb58.gz 22.85MB Kongsberg multibeam vendor format
0021_20110107_063224.all.mb58.gz 22.74MB Kongsberg multibeam vendor format
0022_20110107_070220.all.mb58.gz 22.90MB Kongsberg multibeam vendor format
0023_20110107_073223.all.mb58.gz 22.94MB Kongsberg multibeam vendor format
0024_20110107_080227.all.mb58.gz 22.75MB Kongsberg multibeam vendor format
0025_20110107_083220.all.mb58.gz 22.85MB Kongsberg multibeam vendor format
0026_20110107_090220.all.mb58.gz 22.96MB Kongsberg multibeam vendor format
0027_20110107_093224.all.mb58.gz 22.75MB Kongsberg multibeam vendor format
0028_20110107_100221.all.mb58.gz 22.57MB Kongsberg multibeam vendor format
0029_20110107_103223.all.mb58.gz 22.85MB Kongsberg multibeam vendor format
0030_20110107_110223.all.mb58.gz 22.62MB Kongsberg multibeam vendor format
0031_20110107_113223.all.mb58.gz 22.74MB Kongsberg multibeam vendor format
0032_20110107_120225.all.mb58.gz 22.14MB Kongsberg multibeam vendor format
0033_20110107_123221.all.mb58.gz 22.49MB Kongsberg multibeam vendor format
0034_20110107_130226.all.mb58.gz 22.35MB Kongsberg multibeam vendor format
0035_20110107_133220.all.mb58.gz 22.26MB Kongsberg multibeam vendor format
0036_20110107_140219.all.mb58.gz 21.95MB Kongsberg multibeam vendor format
0037_20110107_143226.all.mb58.gz 22.30MB Kongsberg multibeam vendor format
0038_20110107_150222.all.mb58.gz 22.66MB Kongsberg multibeam vendor format
0039_20110107_153227.all.mb58.gz 22.46MB Kongsberg multibeam vendor format
0040_20110107_160222.all.mb58.gz 22.49MB Kongsberg multibeam vendor format
0041_20110107_163219.all.mb58.gz 22.63MB Kongsberg multibeam vendor format
0042_20110107_170227.all.mb58.gz 21.86MB Kongsberg multibeam vendor format
0043_20110107_173223.all.mb58.gz 22.45MB Kongsberg multibeam vendor format
0044_20110107_180220.all.mb58.gz 22.65MB Kongsberg multibeam vendor format
0045_20110107_183227.all.mb58.gz 19.19MB Kongsberg multibeam vendor format
0046_20110107_195619.all.mb58.gz 21.74MB Kongsberg multibeam vendor format
0047_20110107_202606.all.mb58.gz 22.41MB Kongsberg multibeam vendor format
0048_20110107_205609.all.mb58.gz 22.44MB Kongsberg multibeam vendor format
0049_20110107_212612.all.mb58.gz 21.94MB Kongsberg multibeam vendor format
0050_20110107_215606.all.mb58.gz 22.43MB Kongsberg multibeam vendor format
0051_20110107_222604.all.mb58.gz 22.42MB Kongsberg multibeam vendor format
0052_20110107_225604.all.mb58.gz 22.38MB Kongsberg multibeam vendor format
0053_20110107_232604.all.mb58.gz 22.52MB Kongsberg multibeam vendor format
0054_20110107_235605.all.mb58.gz 22.47MB Kongsberg multibeam vendor format
0055_20110108_002605.all.mb58.gz 22.43MB Kongsberg multibeam vendor format
0056_20110108_005606.all.mb58.gz 22.43MB Kongsberg multibeam vendor format
0057_20110108_012606.all.mb58.gz 22.39MB Kongsberg multibeam vendor format
0058_20110108_015603.all.mb58.gz 22.55MB Kongsberg multibeam vendor format
0059_20110108_022610.all.mb58.gz 22.39MB Kongsberg multibeam vendor format
0060_20110108_025605.all.mb58.gz 22.35MB Kongsberg multibeam vendor format
0061_20110108_032601.all.mb58.gz 21.76MB Kongsberg multibeam vendor format
0062_20110108_035600.all.mb58.gz 21.79MB Kongsberg multibeam vendor format
0063_20110108_042601.all.mb58.gz 22.42MB Kongsberg multibeam vendor format
0064_20110108_045604.all.mb58.gz 22.41MB Kongsberg multibeam vendor format
0065_20110108_052608.all.mb58.gz 22.47MB Kongsberg multibeam vendor format
0066_20110108_055602.all.mb58.gz 22.53MB Kongsberg multibeam vendor format
0067_20110108_062609.all.mb58.gz 22.22MB Kongsberg multibeam vendor format
0068_20110108_065601.all.mb58.gz 22.52MB Kongsberg multibeam vendor format
0069_20110108_072607.all.mb58.gz 22.35MB Kongsberg multibeam vendor format
0070_20110108_075602.all.mb58.gz 22.29MB Kongsberg multibeam vendor format
0071_20110108_082600.all.mb58.gz 22.43MB Kongsberg multibeam vendor format
0072_20110108_085602.all.mb58.gz 22.34MB Kongsberg multibeam vendor format
0073_20110108_092609.all.mb58.gz 22.29MB Kongsberg multibeam vendor format
0074_20110108_095603.all.mb58.gz 22.38MB Kongsberg multibeam vendor format
0075_20110108_102608.all.mb58.gz 22.16MB Kongsberg multibeam vendor format
0076_20110108_105600.all.mb58.gz 22.37MB Kongsberg multibeam vendor format
0077_20110108_112604.all.mb58.gz 22.43MB Kongsberg multibeam vendor format
0078_20110108_115610.all.mb58.gz 22.37MB Kongsberg multibeam vendor format
0079_20110108_122609.all.mb58.gz 22.38MB Kongsberg multibeam vendor format
0080_20110108_125609.all.mb58.gz 22.35MB Kongsberg multibeam vendor format
0081_20110108_132601.all.mb58.gz 22.41MB Kongsberg multibeam vendor format
0082_20110108_135607.all.mb58.gz 22.25MB Kongsberg multibeam vendor format
0083_20110108_142603.all.mb58.gz 22.27MB Kongsberg multibeam vendor format
0084_20110108_145605.all.mb58.gz 22.25MB Kongsberg multibeam vendor format
0085_20110108_152602.all.mb58.gz 22.40MB Kongsberg multibeam vendor format
0086_20110108_155608.all.mb58.gz 22.25MB Kongsberg multibeam vendor format
0087_20110108_162606.all.mb58.gz 22.25MB Kongsberg multibeam vendor format
0088_20110108_165606.all.mb58.gz 9.75MB Kongsberg multibeam vendor format

Metadata Files: 1

Files File Size Description
TN261_Multibeam.xml NGDC created ISO metadata